Flag for Barbados Weather past 2 weeks in Bridgetown, Barbados

Now
81 °F

Broken clouds.


Feels Like: 85 °F
Forecast: 78 / 84 °F
Wind: 23 mph from East

Location: Grantley Adams


UV Index: 10 (Very high)

Visibility: N/A


Pressure: 30.01 "Hg

Humidity: 74%

Dew point: 72 °F

Location of BridgetownLocation

Historic Weather in Bridgetown

°F

Bridgetown temperature yesterday

Maximum temperature yesterday: 84 °F (at 11:00 AM)
Minimum temperature yesterday: 77 °F (at 12:00 AM)
Average temperature yesterday: 80 °F

Past Weeks' High & Low Weather Summary

 TemperatureHumidityPressure
High86 °F (Apr 9, 11:00 AM)100% (Apr 17, 4:00 PM)30.09 "Hg (Apr 17, 4:00 PM)
Low73 °F (Apr 12, 4:00 AM)58% (Apr 4, 3:00 PM)29.86 "Hg (Apr 14, 4:00 PM)
Average80 °F74%29.98 "Hg
* Reported Apr 4 7:00 AM — Apr 19 7:00 AM, Bridgetown, Weather by CustomWeather, © 2014

Note: Actual official high and low records may vary slightly from our data, if they occured in-between our weather recording intervals... More about our weather records

Advertising

Historic Weather Conditions — Data for Previous 24 hours

 ConditionsComfort  
Time TempWeatherWind HumidityBarometerVisibility
7:00 AM
Apr 19
79 °FBroken clouds.13 mph84%30.01 "HgN/A
6:00 AM75 °FSprinkles. Broken clouds.13 mph78%29.98 "HgN/A
5:00 AM79 °FPartly cloudy.15 mph79%29.98 "HgN/A
4:00 AM77 °FPartly cloudy.9 mph89%29.95 "HgN/A
3:00 AM77 °FPassing clouds.20 mph83%29.95 "HgN/A
2:00 AM77 °FPassing clouds.20 mph83%29.95 "HgN/A
12:00 AM79 °FPassing clouds.23 mph74%29.98 "HgN/A
11:00 PM
Apr 18
79 °FPassing clouds.23 mph79%29.98 "HgN/A
10:00 PM79 °FPassing clouds.22 mph79%29.98 "HgN/A
9:00 PM77 °FPassing clouds.14 mph83%29.98 "HgN/A
8:00 PM79 °FPassing clouds.20 mph79%29.98 "HgN/A
7:00 PM77 °FPassing clouds.20 mph83%29.95 "HgN/A
6:00 PM79 °FScattered clouds.18 mph74%29.95 "HgN/A
5:00 PM82 °FPassing clouds.21 mph70%29.95 "HgN/A
4:00 PM82 °FPassing clouds.18 mph70%29.92 "HgN/A
3:00 PM82 °FPassing clouds.21 mph70%29.95 "HgN/A
2:00 PM84 °FScattered clouds.22 mph70%29.95 "HgN/A
1:00 PM84 °FScattered clouds.21 mph70%29.98 "HgN/A
12:00 PM82 °FPassing clouds.22 mph70%29.98 "HgN/A
11:00 AM84 °FPassing clouds.22 mph62%30.01 "HgN/A
10:00 AM82 °FPassing clouds.22 mph66%30.01 "HgN/A
9:00 AM82 °FPassing clouds.22 mph70%29.98 "HgN/A
8:00 AM81 °FScattered clouds.22 mph74%29.98 "HgN/A
Weather by CustomWeather, © 2014

See weather overview